Time,TemperatureF,DewpointF,PressureIn,WindDirection,WindDirectionDegrees,WindSpeedMPH,WindSpeedGustMPH,Humidity,HourlyPrecipIn,Conditions,Clouds,dailyrainin,SoftwareType,DateUTC
2013-08-12 00:01:00,57.9,45.4,29.75,SW,230,0.0,0.0,63,0.00,CLR,,0.00,WeatherDisplay:10.37,2013-08-11 14:01:00,
2013-08-12 00:06:00,57.9,45.4,29.75,WSW,248,0.0,0.0,63,0.00,CLR,,0.00,WeatherDisplay:10.37,2013-08-11 14:06:00,
2013-08-12 00:16:00,57.9,45.4,29.75,WNW,303,0.0,0.0,63,0.00,CLR,,0.00,WeatherDisplay:10.37,2013-08-11 14:16:00,
2013-08-12 00:21:00,57.9,45.8,29.75,West,281,0.0,0.0,64,0.00,CLR,,0.00,WeatherDisplay:10.37,2013-08-11 14:21:00,
2013-08-12 00:26:00,57.9,45.4,29.74,NW,310,0.0,0.0,63,0.00,CLR,,0.00,WeatherDisplay:10.37,2013-08-11 14:26:00,
2013-08-12 00:31:00,57.9,45.4,29.74,NW,306,0.0,0.0,63,0.00,CLR,,0.00,WeatherDisplay:10.37,2013-08-11 14:31:00,
2013-08-12 00:36:00,57.9,45.4,29.74,West,281,0.0,0.0,63,0.00,CLR,,0.00,WeatherDisplay:10.37,2013-08-11 14:36:00,
2013-08-12 00:41:00,57.9,45.4,29.74,WNW,287,0.0,0.0,63,0.00,CLR,,0.00,WeatherDisplay:10.37,2013-08-11 14:41:00,
2013-08-12 00:51:00,57.9,45.4,29.74,NW,319,0.0,0.0,63,0.00,CLR,,0.00,WeatherDisplay:10.37,2013-08-11 14:51:00,
2013-08-12 00:56:00,57.9,45.4,29.74,NNW,339,0.0,0.0,63,0.00,CLR,,0.00,WeatherDisplay:10.37,2013-08-11 14:56:00,
2013-08-12 01:06:00,57.9,45.4,29.73,NNW,337,0.0,0.0,63,0.00,CLR,,0.00,WeatherDisplay:10.37,2013-08-11 15:06:00,
2013-08-12 01:11:00,57.9,45.4,29.73,WNW,296,0.0,0.0,63,0.00,CLR,,0.00,WeatherDisplay:10.37,2013-08-11 15:11:00,
2013-08-12 01:16:00,57.9,45.4,29.73,West,279,0.0,0.0,63,0.00,CLR,,0.00,WeatherDisplay:10.37,2013-08-11 15:16:00,
2013-08-12 01:21:00,57.9,45.4,29.73,West,271,0.0,0.0,63,0.00,CLR,,0.00,WeatherDisplay:10.37,2013-08-11 15:21:00,
2013-08-12 01:26:00,57.7,45.2,29.73,WNW,290,0.0,0.0,63,0.00,CLR,,0.00,WeatherDisplay:10.37,2013-08-11 15:26:00,
2013-08-12 01:31:00,57.7,45.2,29.73,NW,318,0.0,0.0,63,0.00,CLR,,0.00,WeatherDisplay:10.37,2013-08-11 15:31:00,
2013-08-12 01:36:00,57.7,45.2,29.72,NNW,331,0.0,0.0,63,0.00,CLR,,0.00,WeatherDisplay:10.37,2013-08-11 15:36:00,
2013-08-12 01:41:00,57.7,45.2,29.72,WNW,300,0.0,0.0,63,0.00,CLR,,0.00,WeatherDisplay:10.37,2013-08-11 15:41:00,
2013-08-12 01:46:00,57.7,45.2,29.72,WNW,297,0.0,0.0,63,0.00,CLR,,0.00,WeatherDisplay:10.37,2013-08-11 15:46:00,
2013-08-12 01:51:00,57.7,45.2,29.72,NNW,330,0.0,0.0,63,0.00,CLR,,0.00,WeatherDisplay:10.37,2013-08-11 15:51:00,
2013-08-12 01:56:00,57.9,45.4,29.71,NW,307,0.0,0.0,63,0.00,CLR,,0.00,WeatherDisplay:10.37,2013-08-11 15:56:00,
2013-08-12 02:01:00,57.9,45.4,29.71,NW,323,0.0,0.0,63,0.00,CLR,,0.00,WeatherDisplay:10.37,2013-08-11 16:01:00,
2013-08-12 02:06:00,57.9,45.8,29.71,NNW,340,0.0,0.0,64,0.00,CLR,,0.00,WeatherDisplay:10.37,2013-08-11 16:06:00,
2013-08-12 02:21:00,58.1,46.0,29.71,NW,304,0.0,0.0,64,0.00,CLR,,0.00,WeatherDisplay:10.37,2013-08-11 16:21:00,
2013-08-12 02:26:00,58.2,46.1,29.71,WNW,303,0.0,0.0,64,0.00,CLR,,0.00,WeatherDisplay:10.37,2013-08-11 16:26:00,
2013-08-12 02:31:00,58.3,46.2,29.71,NW,315,0.0,0.0,64,0.00,CLR,,0.00,WeatherDisplay:10.37,2013-08-11 16:31:00,
2013-08-12 02:36:00,58.3,46.2,29.71,NNW,336,0.0,0.0,64,0.00,CLR,,0.00,WeatherDisplay:10.37,2013-08-11 16:36:00,
2013-08-12 02:41:00,58.3,46.2,29.70,North,356,0.0,0.0,64,0.00,CLR,,0.00,WeatherDisplay:10.37,2013-08-11 16:41:00,
2013-08-12 02:46:00,58.3,45.7,29.70,North,359,0.0,0.0,63,0.00,CLR,,0.00,WeatherDisplay:10.37,2013-08-11 16:46:00,
2013-08-12 02:51:00,58.3,45.7,29.70,North,0,0.0,0.0,63,0.00,CLR,,0.00,WeatherDisplay:10.37,2013-08-11 16:51:00,
2013-08-12 02:56:00,58.1,45.6,29.70,NNE,13,0.0,0.0,63,0.00,CLR,,0.00,WeatherDisplay:10.37,2013-08-11 16:56:00,
2013-08-12 03:06:00,58.1,45.6,29.70,NNE,18,0.0,0.0,63,0.00,CLR,,0.00,WeatherDisplay:10.37,2013-08-11 17:06:00,
2013-08-12 03:11:00,57.9,45.4,29.69,NNE,32,0.0,0.0,63,0.00,CLR,,0.00,WeatherDisplay:10.37,2013-08-11 17:11:00,
2013-08-12 03:16:00,57.7,45.2,29.69,NNE,32,0.0,0.0,63,0.00,CLR,,0.00,WeatherDisplay:10.37,2013-08-11 17:16:00,
2013-08-12 03:21:00,57.6,45.5,29.69,NNE,20,0.0,0.0,64,0.00,CLR,,0.00,WeatherDisplay:10.37,2013-08-11 17:21:00,
2013-08-12 03:31:00,57.4,45.3,29.68,North,11,0.0,0.0,64,0.00,CLR,,0.00,WeatherDisplay:10.37,2013-08-11 17:31:00,
2013-08-12 03:36:00,57.2,45.1,29.68,North,4,0.0,0.0,64,0.00,CLR,,0.00,WeatherDisplay:10.37,2013-08-11 17:36:00,
2013-08-12 03:41:00,57.0,45.4,29.68,North,6,0.0,0.0,65,0.00,CLR,,0.00,WeatherDisplay:10.37,2013-08-11 17:41:00,
2013-08-12 03:46:00,57.0,45.4,29.68,North,4,0.0,0.0,65,0.00,CLR,,0.00,WeatherDisplay:10.37,2013-08-11 17:46:00,
2013-08-12 03:51:00,57.0,45.4,29.68,North,7,0.0,0.0,65,0.00,CLR,,0.00,WeatherDisplay:10.37,2013-08-11 17:51:00,
2013-08-12 03:56:00,56.8,45.2,29.68,NNE,13,0.0,0.0,65,0.00,CLR,,0.00,WeatherDisplay:10.37,2013-08-11 17:56:00,
2013-08-12 04:01:00,56.5,45.3,29.68,NNE,18,0.0,0.0,66,0.00,CLR,,0.00,WeatherDisplay:10.37,2013-08-11 18:01:00,
2013-08-12 04:06:00,56.5,45.3,29.67,NNE,14,0.0,3.0,66,0.00,CLR,,0.00,WeatherDisplay:10.37,2013-08-11 18:06:00,
2013-08-12 04:11:00,56.3,45.1,29.67,NNE,18,0.0,3.0,66,0.00,CLR,,0.00,WeatherDisplay:10.37,2013-08-11 18:11:00,
2013-08-12 04:16:00,56.1,44.9,29.67,NNE,25,0.0,0.0,66,0.00,CLR,,0.00,WeatherDisplay:10.37,2013-08-11 18:16:00,
2013-08-12 04:21:00,56.1,44.9,29.67,NNE,27,0.0,2.0,66,0.00,CLR,,0.00,WeatherDisplay:10.37,2013-08-11 18:21:00,
2013-08-12 04:26:00,55.9,44.7,29.67,NNE,31,0.0,3.0,66,0.00,CLR,,0.00,WeatherDisplay:10.37,2013-08-11 18:26:00,
2013-08-12 04:36:00,55.8,45.0,29.67,NNE,25,0.0,0.0,67,0.00,CLR,,0.00,WeatherDisplay:10.37,2013-08-11 18:36:00,
2013-08-12 04:41:00,55.6,44.8,29.67,NNE,26,0.0,0.0,67,0.00,CLR,,0.00,WeatherDisplay:10.37,2013-08-11 18:41:00,
2013-08-12 04:46:00,55.4,44.6,29.67,NNE,25,0.0,0.0,67,0.00,CLR,,0.00,WeatherDisplay:10.37,2013-08-11 18:46:00,
2013-08-12 04:51:00,55.2,44.4,29.67,NNE,22,0.0,0.0,67,0.00,CLR,,0.00,WeatherDisplay:10.37,2013-08-11 18:51:00,
2013-08-12 04:56:00,55.2,44.4,29.67,NE,50,0.0,0.0,67,0.00,CLR,,0.00,WeatherDisplay:10.37,2013-08-11 18:56:00,
2013-08-12 05:01:00,55.0,44.7,29.66,ENE,77,0.0,0.0,68,0.00,CLR,,0.00,WeatherDisplay:10.37,2013-08-11 19:01:00,
2013-08-12 05:11:00,54.9,44.5,29.66,WSW,251,0.0,0.0,68,0.00,CLR,,0.00,WeatherDisplay:10.37,2013-08-11 19:11:00,
2013-08-12 05:16:00,54.7,44.3,29.66,West,278,0.0,0.0,68,0.00,CLR,,0.00,WeatherDisplay:10.37,2013-08-11 19:16:00,
2013-08-12 05:26:00,54.5,44.2,29.66,WSW,237,0.0,0.0,68,0.00,CLR,,0.00,WeatherDisplay:10.37,2013-08-11 19:26:00,
2013-08-12 05:31:00,54.3,44.4,29.66,SW,230,0.0,0.0,69,0.00,CLR,,0.00,WeatherDisplay:10.37,2013-08-11 19:31:00,
2013-08-12 05:36:00,54.3,44.0,29.65,SW,228,0.0,0.0,68,0.00,CLR,,0.00,WeatherDisplay:10.37,2013-08-11 19:36:00,
2013-08-12 05:41:00,54.1,43.8,29.66,WSW,241,0.0,0.0,68,0.00,CLR,,0.00,WeatherDisplay:10.37,2013-08-11 19:41:00,
2013-08-12 05:46:00,54.1,43.8,29.66,WSW,243,0.0,0.0,68,0.00,CLR,,0.00,WeatherDisplay:10.37,2013-08-11 19:46:00,
2013-08-12 05:56:00,53.8,43.8,29.65,SW,223,0.0,0.0,69,0.00,CLR,,0.00,WeatherDisplay:10.37,2013-08-11 19:56:00,
2013-08-12 06:01:00,53.4,43.5,29.65,SSW,208,0.0,0.0,69,0.00,CLR,,0.00,WeatherDisplay:10.37,2013-08-11 20:01:00,
2013-08-12 06:11:00,53.4,43.5,29.65,SW,236,0.0,0.0,69,0.00,CLR,,0.00,WeatherDisplay:10.37,2013-08-11 20:11:00,
2013-08-12 06:16:00,53.4,43.5,29.65,WSW,255,0.0,0.0,69,0.00,CLR,,0.00,WeatherDisplay:10.37,2013-08-11 20:16:00,
2013-08-12 06:26:00,53.4,43.5,29.65,SW,214,0.0,0.0,69,0.00,CLR,,0.00,WeatherDisplay:10.37,2013-08-11 20:26:00,
2013-08-12 06:31:00,53.4,43.5,29.65,SSW,198,0.0,0.0,69,0.00,CLR,,0.00,WeatherDisplay:10.37,2013-08-11 20:31:00,
2013-08-12 06:36:00,53.4,43.5,29.64,SSW,204,0.0,0.0,69,0.00,CLR,,0.00,WeatherDisplay:10.37,2013-08-11 20:36:00,
2013-08-12 06:41:00,53.4,43.5,29.64,SSW,202,0.0,0.0,69,0.00,CLR,,0.00,WeatherDisplay:10.37,2013-08-11 20:41:00,
2013-08-12 06:46:00,53.4,43.5,29.64,SSW,205,0.0,0.0,69,0.00,CLR,,0.00,WeatherDisplay:10.37,2013-08-11 20:46:00,
2013-08-12 06:51:00,53.2,43.3,29.64,SW,225,0.0,0.0,69,0.00,CLR,,0.00,WeatherDisplay:10.37,2013-08-11 20:51:00,
2013-08-12 07:01:00,53.2,43.3,29.65,SW,225,0.0,0.0,69,0.00,CLR,,0.00,WeatherDisplay:10.37,2013-08-11 21:01:00,
2013-08-12 07:11:00,53.2,43.7,29.64,SW,225,0.0,0.0,70,0.00,CLR,,0.00,WeatherDisplay:10.37,2013-08-11 21:11:00,
2013-08-12 07:16:00,53.4,43.9,29.63,SW,225,0.0,0.0,70,0.00,CLR,,0.00,WeatherDisplay:10.37,2013-08-11 21:16:00,
2013-08-12 07:21:00,53.4,43.9,29.63,SW,227,0.0,0.0,70,0.00,CLR,,0.00,WeatherDisplay:10.37,2013-08-11 21:21:00,
2013-08-12 07:26:00,53.8,44.2,29.64,SW,227,0.0,0.0,70,0.00,CLR,,0.00,WeatherDisplay:10.37,2013-08-11 21:26:00,
2013-08-12 07:31:00,54.0,44.4,29.64,SW,225,0.0,0.0,70,0.00,CLR,,0.00,WeatherDisplay:10.37,2013-08-11 21:31:00,
2013-08-12 07:41:00,54.3,44.4,29.64,SW,225,0.0,0.0,69,0.00,CLR,,0.00,WeatherDisplay:10.37,2013-08-11 21:41:00,
2013-08-12 07:46:00,54.4,44.5,29.64,WSW,248,0.0,0.0,69,0.00,CLR,,0.00,WeatherDisplay:10.37,2013-08-11 21:46:00,
2013-08-12 07:51:00,54.7,44.7,29.64,WNW,300,0.0,0.0,69,0.00,CLR,,0.00,WeatherDisplay:10.37,2013-08-11 21:51:00,
2013-08-12 07:56:00,54.9,44.9,29.64,NW,315,0.0,0.0,69,0.00,CLR,,0.00,WeatherDisplay:10.37,2013-08-11 21:56:00,
2013-08-12 08:01:00,55.0,45.1,29.64,NNW,328,0.0,0.0,69,0.00,CLR,,0.00,WeatherDisplay:10.37,2013-08-11 22:01:00,
2013-08-12 08:06:00,55.5,45.5,29.64,North,352,0.0,0.0,69,0.00,CLR,,0.00,WeatherDisplay:10.37,2013-08-11 22:06:00,
2013-08-12 08:16:00,56.5,46.4,29.64,NNE,19,0.0,0.0,69,0.00,CLR,,0.00,WeatherDisplay:10.37,2013-08-11 22:16:00,
2013-08-12 08:26:00,57.9,47.4,29.62,North,1,0.0,2.0,68,0.00,CLR,,0.00,WeatherDisplay:10.37,2013-08-11 22:26:00,
2013-08-12 08:31:00,58.8,47.8,29.63,North,351,0.0,2.0,67,0.00,CLR,,0.00,WeatherDisplay:10.37,2013-08-11 22:31:00,
2013-08-12 08:36:00,59.6,47.8,29.62,NNW,347,0.0,2.0,65,0.00,CLR,,0.00,WeatherDisplay:10.37,2013-08-11 22:36:00,
2013-08-12 08:41:00,60.4,48.2,29.63,NNW,345,0.0,2.0,64,0.00,CLR,,0.00,WeatherDisplay:10.37,2013-08-11 22:41:00,
2013-08-12 08:46:00,61.2,48.1,29.63,North,349,0.0,3.0,62,0.00,CLR,,0.00,WeatherDisplay:10.37,2013-08-11 22:46:00,
2013-08-12 08:51:00,61.9,48.3,29.63,North,350,0.0,2.0,61,0.00,CLR,,0.00,WeatherDisplay:10.37,2013-08-11 22:51:00,
2013-08-12 08:56:00,62.8,48.7,29.63,NNW,336,1.0,2.0,60,0.00,CLR,,0.00,WeatherDisplay:10.37,2013-08-11 22:56:00,
2013-08-12 09:01:00,63.5,48.9,29.62,NNW,343,0.0,5.0,59,0.00,CLR,,0.00,WeatherDisplay:10.37,2013-08-11 23:01:00,
2013-08-12 09:06:00,64.1,49.0,29.62,North,357,1.0,4.0,58,0.00,CLR,,0.00,WeatherDisplay:10.37,2013-08-11 23:06:00,
2013-08-12 09:11:00,64.8,49.2,29.62,North,354,1.0,6.0,57,0.00,CLR,,0.00,WeatherDisplay:10.37,2013-08-11 23:11:00,
2013-08-12 09:16:00,65.3,49.7,29.62,North,349,0.0,3.0,57,0.00,CLR,,0.00,WeatherDisplay:10.37,2013-08-11 23:16:00,
2013-08-12 09:21:00,66.0,49.3,29.62,NNW,336,0.0,5.0,55,0.00,CLR,,0.00,WeatherDisplay:10.37,2013-08-11 23:21:00,
2013-08-12 09:31:00,66.9,48.7,29.62,NNW,335,1.0,5.0,52,0.00,CLR,,0.00,WeatherDisplay:10.37,2013-08-11 23:31:00,
2013-08-12 09:36:00,67.3,49.1,29.61,NNW,337,1.0,3.0,52,0.00,CLR,,0.00,WeatherDisplay:10.37,2013-08-11 23:36:00,
2013-08-12 09:41:00,67.6,48.9,29.61,NNW,345,1.0,6.0,51,0.00,CLR,,0.00,WeatherDisplay:10.37,2013-08-11 23:41:00,
2013-08-12 09:46:00,67.8,49.0,29.60,NNW,340,0.0,5.0,51,0.00,CLR,,0.00,WeatherDisplay:10.37,2013-08-11 23:46:00,
2013-08-12 09:51:00,68.1,49.3,29.60,NNW,336,0.0,6.0,51,0.00,CLR,,0.00,WeatherDisplay:10.37,2013-08-11 23:51:00,
2013-08-12 09:56:00,68.2,48.8,29.60,North,356,3.0,6.0,50,0.00,CLR,,0.00,WeatherDisplay:10.37,2013-08-11 23:56:00,
2013-08-12 10:01:00,68.6,48.6,29.59,North,352,1.0,6.0,49,0.00,CLR,,0.00,WeatherDisplay:10.37,2013-08-12 00:01:00,
2013-08-12 10:06:00,68.8,48.9,29.59,NNW,338,0.0,6.0,49,0.00,CLR,,0.00,WeatherDisplay:10.37,2013-08-12 00:06:00,
2013-08-12 10:11:00,69.5,49.5,29.59,NW,324,0.0,0.0,49,0.00,CLR,,0.00,WeatherDisplay:10.37,2013-08-12 00:11:00,
2013-08-12 10:16:00,70.0,49.9,29.59,NW,326,0.0,0.0,49,0.00,CLR,,0.00,WeatherDisplay:10.37,2013-08-12 00:16:00,
2013-08-12 10:21:00,70.5,50.4,29.58,NW,310,0.0,2.0,49,0.00,CLR,,0.00,WeatherDisplay:10.37,2013-08-12 00:21:00,
2013-08-12 10:26:00,71.0,50.9,29.58,NW,317,0.0,2.0,49,0.00,CLR,,0.00,WeatherDisplay:10.37,2013-08-12 00:26:00,
2013-08-12 10:36:00,72.0,50.7,29.57,North,1,2.0,6.0,47,0.00,CLR,,0.00,WeatherDisplay:10.37,2013-08-12 00:36:00,
2013-08-12 10:46:00,72.5,51.1,29.56,NNE,13,1.0,5.0,47,0.00,CLR,,0.00,WeatherDisplay:10.37,2013-08-12 00:46:00,
2013-08-12 10:56:00,73.2,51.2,29.55,North,350,0.0,2.0,46,0.00,CLR,,0.00,WeatherDisplay:10.37,2013-08-12 00:56:00,
2013-08-12 11:01:00,73.6,51.5,29.55,NNW,347,0.0,3.0,46,0.00,CLR,,0.00,WeatherDisplay:10.37,2013-08-12 01:01:00,
2013-08-12 11:06:00,73.8,51.8,29.55,NNW,338,0.0,3.0,46,0.00,CLR,,0.00,WeatherDisplay:10.37,2013-08-12 01:06:00,
2013-08-12 11:11:00,74.1,52.0,29.55,North,352,1.0,4.0,46,0.00,CLR,,0.00,WeatherDisplay:10.37,2013-08-12 01:11:00,
2013-08-12 11:16:00,74.5,51.7,29.53,North,356,1.0,4.0,45,0.00,CLR,,0.00,WeatherDisplay:10.37,2013-08-12 01:16:00,
2013-08-12 11:26:00,75.1,52.3,29.53,NW,326,0.0,9.0,45,0.00,CLR,,0.00,WeatherDisplay:10.37,2013-08-12 01:26:00,
2013-08-12 11:31:00,75.6,52.1,29.53,NNW,339,0.0,5.0,44,0.00,CLR,,0.00,WeatherDisplay:10.37,2013-08-12 01:31:00,
2013-08-12 11:36:00,76.1,52.6,29.52,NNW,337,1.0,5.0,44,0.00,CLR,,0.00,WeatherDisplay:10.37,2013-08-12 01:36:00,
2013-08-12 11:41:00,76.8,52.6,29.51,NNW,334,1.0,5.0,43,0.00,CLR,,0.00,WeatherDisplay:10.37,2013-08-12 01:41:00,
2013-08-12 11:46:00,77.1,52.9,29.51,NNW,330,0.0,5.0,43,0.00,CLR,,0.00,WeatherDisplay:10.37,2013-08-12 01:46:00,
2013-08-12 11:51:00,77.5,52.6,29.51,NNW,334,1.0,5.0,42,0.00,CLR,,0.00,WeatherDisplay:10.37,2013-08-12 01:51:00,
2013-08-12 11:56:00,77.9,53.0,29.51,NNW,348,1.0,5.0,42,0.00,CLR,,0.00,WeatherDisplay:10.37,2013-08-12 01:56:00,
2013-08-12 12:01:00,78.4,52.7,29.50,North,358,2.0,6.0,41,0.00,CLR,,0.00,WeatherDisplay:10.37,2013-08-12 02:01:00,
2013-08-12 12:06:00,78.6,52.9,29.50,North,352,0.0,3.0,41,0.00,CLR,,0.00,WeatherDisplay:10.37,2013-08-12 02:06:00,
2013-08-12 12:11:00,78.8,52.4,29.49,North,350,1.0,5.0,40,0.00,CLR,,0.00,WeatherDisplay:10.37,2013-08-12 02:11:00,
2013-08-12 12:16:00,79.3,52.9,29.49,NNW,332,1.0,6.0,40,0.00,CLR,,0.00,WeatherDisplay:10.37,2013-08-12 02:16:00,
2013-08-12 12:21:00,79.8,52.7,29.49,NNW,327,0.0,4.0,39,0.00,CLR,,0.00,WeatherDisplay:10.37,2013-08-12 02:21:00,
2013-08-12 12:26:00,80.4,52.5,29.49,NNW,329,3.0,6.0,38,0.00,CLR,,0.00,WeatherDisplay:10.37,2013-08-12 02:26:00,
2013-08-12 12:36:00,81.3,51.8,29.49,NW,321,5.0,10.0,36,0.00,CLR,,0.00,WeatherDisplay:10.37,2013-08-12 02:36:00,
2013-08-12 12:41:00,81.7,52.1,29.49,NW,311,5.0,7.0,36,0.00,CLR,,0.00,WeatherDisplay:10.37,2013-08-12 02:41:00,
2013-08-12 12:46:00,82.0,51.7,29.49,WNW,290,3.0,7.0,35,0.00,CLR,,0.00,WeatherDisplay:10.37,2013-08-12 02:46:00,
2013-08-12 12:51:00,82.2,51.8,29.49,WNW,290,2.0,7.0,35,0.00,CLR,,0.00,WeatherDisplay:10.37,2013-08-12 02:51:00,
2013-08-12 13:01:00,82.9,50.9,29.49,WNW,284,5.0,14.0,33,0.00,CLR,,0.00,WeatherDisplay:10.37,2013-08-12 03:01:00,
2013-08-12 13:06:00,83.1,49.3,29.49,West,277,9.0,16.0,31,0.00,CLR,,0.00,WeatherDisplay:10.37,2013-08-12 03:06:00,
2013-08-12 13:16:00,82.8,48.2,29.50,WNW,288,8.0,18.0,30,0.00,CLR,,0.00,WeatherDisplay:10.37,2013-08-12 03:16:00,
2013-08-12 13:26:00,81.9,47.4,29.50,West,272,6.0,14.0,30,0.00,CLR,,0.00,WeatherDisplay:10.37,2013-08-12 03:26:00,
2013-08-12 13:41:00,80.8,46.4,29.49,WNW,283,6.0,11.0,30,0.00,CLR,,0.00,WeatherDisplay:10.37,2013-08-12 03:41:00,
2013-08-12 13:46:00,80.4,47.0,29.49,West,274,7.0,15.0,31,0.00,CLR,,0.00,WeatherDisplay:10.37,2013-08-12 03:46:00,
2013-08-12 13:56:00,80.2,46.9,29.49,WNW,287,2.0,11.0,31,0.00,CLR,,0.00,WeatherDisplay:10.37,2013-08-12 03:56:00,
2013-08-12 14:01:00,80.0,45.8,29.49,WNW,291,5.0,14.0,30,0.00,CLR,,0.00,WeatherDisplay:10.37,2013-08-12 04:01:00,
2013-08-12 14:06:00,79.8,46.5,29.48,West,272,5.0,15.0,31,0.00,CLR,,0.00,WeatherDisplay:10.37,2013-08-12 04:06:00,
2013-08-12 14:11:00,79.5,45.4,29.49,West,263,8.0,13.0,30,0.00,CLR,,0.00,WeatherDisplay:10.37,2013-08-12 04:11:00,
2013-08-12 14:16:00,79.5,46.2,29.49,West,266,3.0,8.0,31,0.00,CLR,,0.00,WeatherDisplay:10.37,2013-08-12 04:16:00,
2013-08-12 14:21:00,79.7,46.4,29.49,WSW,253,5.0,9.0,31,0.00,CLR,,0.00,WeatherDisplay:10.37,2013-08-12 04:21:00,
2013-08-12 14:26:00,79.8,46.4,29.50,West,281,5.0,12.0,31,0.00,CLR,,0.00,WeatherDisplay:10.37,2013-08-12 04:26:00,
2013-08-12 14:31:00,79.9,45.7,29.50,WNW,287,6.0,10.0,30,0.00,CLR,,0.00,WeatherDisplay:10.37,2013-08-12 04:31:00,
2013-08-12 14:36:00,80.1,45.8,29.50,West,276,6.0,10.0,30,0.00,CLR,,0.00,WeatherDisplay:10.37,2013-08-12 04:36:00,
2013-08-12 14:41:00,80.2,46.0,29.51,West,279,6.0,17.0,30,0.00,CLR,,0.00,WeatherDisplay:10.37,2013-08-12 04:41:00,
2013-08-12 14:46:00,80.2,46.0,29.51,West,269,7.0,17.0,30,0.00,CLR,,0.00,WeatherDisplay:10.37,2013-08-12 04:46:00,
2013-08-12 14:51:00,79.9,45.7,29.51,WSW,257,6.0,23.0,30,0.00,CLR,,0.00,WeatherDisplay:10.37,2013-08-12 04:51:00,
2013-08-12 14:56:00,79.4,45.2,29.51,WSW,253,7.0,16.0,30,0.00,CLR,,0.00,WeatherDisplay:10.37,2013-08-12 04:56:00,
2013-08-12 15:01:00,79.0,45.8,29.53,WSW,254,7.0,14.0,31,0.00,CLR,,0.00,WeatherDisplay:10.37,2013-08-12 05:01:00,
2013-08-12 15:06:00,78.4,45.3,29.53,West,277,7.0,16.0,31,0.00,CLR,,0.00,WeatherDisplay:10.37,2013-08-12 05:06:00,
2013-08-12 15:11:00,77.8,44.7,29.53,West,277,6.0,21.0,31,0.00,CLR,,0.00,WeatherDisplay:10.37,2013-08-12 05:11:00,
2013-08-12 15:16:00,77.2,45.0,29.54,West,277,6.0,17.0,32,0.00,CLR,,0.00,WeatherDisplay:10.37,2013-08-12 05:16:00,
2013-08-12 15:21:00,76.6,45.4,29.54,West,277,6.0,18.0,33,0.00,CLR,,0.00,WeatherDisplay:10.37,2013-08-12 05:21:00,
2013-08-12 15:26:00,76.3,45.1,29.55,WSW,257,5.0,13.0,33,0.00,CLR,,0.00,WeatherDisplay:10.37,2013-08-12 05:26:00,
2013-08-12 15:31:00,76.1,44.9,29.55,WSW,240,10.0,20.0,33,0.00,CLR,,0.00,WeatherDisplay:10.37,2013-08-12 05:31:00,
2013-08-12 15:36:00,75.7,45.4,29.56,West,259,5.0,9.0,34,0.00,CLR,,0.00,WeatherDisplay:10.37,2013-08-12 05:36:00,
2013-08-12 15:41:00,75.4,45.1,29.57,West,264,9.0,14.0,34,0.00,CLR,,0.00,WeatherDisplay:10.37,2013-08-12 05:41:00,
2013-08-12 15:46:00,75.0,45.5,29.57,West,260,3.0,11.0,35,0.00,CLR,,0.00,WeatherDisplay:10.37,2013-08-12 05:46:00,
2013-08-12 15:51:00,74.7,46.0,29.58,WSW,257,8.0,18.0,36,0.00,CLR,,0.00,WeatherDisplay:10.37,2013-08-12 05:51:00,
2013-08-12 15:56:00,74.2,45.5,29.59,WSW,246,3.0,20.0,36,0.00,CLR,,0.00,WeatherDisplay:10.37,2013-08-12 05:56:00,
2013-08-12 16:01:00,73.9,46.0,29.60,WSW,237,12.0,20.0,37,0.00,CLR,,0.00,WeatherDisplay:10.37,2013-08-12 06:01:00,
2013-08-12 16:06:00,73.3,45.4,29.60,WSW,251,7.0,14.0,37,0.00,CLR,,0.00,WeatherDisplay:10.37,2013-08-12 06:06:00,
2013-08-12 16:11:00,72.7,45.6,29.60,WSW,256,2.0,22.0,38,0.00,CLR,,0.00,WeatherDisplay:10.37,2013-08-12 06:11:00,
2013-08-12 16:16:00,72.2,45.2,29.60,WSW,247,6.0,13.0,38,0.00,CLR,,0.00,WeatherDisplay:10.37,2013-08-12 06:16:00,
2013-08-12 16:21:00,71.8,45.5,29.62,WSW,252,5.0,13.0,39,0.00,CLR,,0.00,WeatherDisplay:10.37,2013-08-12 06:21:00,
2013-08-12 16:26:00,71.4,45.2,29.62,West,276,1.0,9.0,39,0.00,CLR,,0.00,WeatherDisplay:10.37,2013-08-12 06:26:00,
2013-08-12 16:31:00,71.2,45.0,29.62,West,280,5.0,13.0,39,0.00,CLR,,0.00,WeatherDisplay:10.37,2013-08-12 06:31:00,
2013-08-12 16:36:00,70.9,45.3,29.62,West,276,5.0,13.0,40,0.00,CLR,,0.00,WeatherDisplay:10.37,2013-08-12 06:36:00,
2013-08-12 16:41:00,70.5,45.0,29.62,WNW,295,6.0,14.0,40,0.00,CLR,,0.00,WeatherDisplay:10.37,2013-08-12 06:41:00,
2013-08-12 16:46:00,70.3,45.5,29.63,WNW,290,6.0,13.0,41,0.00,CLR,,0.00,WeatherDisplay:10.37,2013-08-12 06:46:00,
2013-08-12 16:51:00,70.0,45.2,29.64,West,266,3.0,19.0,41,0.00,CLR,,0.00,WeatherDisplay:10.37,2013-08-12 06:51:00,
2013-08-12 16:56:00,69.6,45.5,29.63,West,278,8.0,17.0,42,0.00,CLR,,0.00,WeatherDisplay:10.37,2013-08-12 06:56:00,
2013-08-12 17:01:00,69.4,45.3,29.63,West,270,7.0,12.0,42,0.00,CLR,,0.00,WeatherDisplay:10.37,2013-08-12 07:01:00,
2013-08-12 17:06:00,69.3,45.2,29.61,West,270,1.0,8.0,42,0.00,CLR,,0.00,WeatherDisplay:10.37,2013-08-12 07:06:00,
2013-08-12 17:11:00,69.1,45.6,29.61,WNW,289,5.0,10.0,43,0.00,CLR,,0.00,WeatherDisplay:10.37,2013-08-12 07:11:00,
2013-08-12 17:16:00,68.9,45.5,29.60,NW,326,5.0,14.0,43,0.00,CLR,,0.00,WeatherDisplay:10.37,2013-08-12 07:16:00,
2013-08-12 17:21:00,68.7,45.3,29.59,NNW,342,5.0,13.0,43,0.00,CLR,,0.00,WeatherDisplay:10.37,2013-08-12 07:21:00,
2013-08-12 17:26:00,68.7,45.3,29.59,North,350,2.0,12.0,43,0.00,CLR,,0.00,WeatherDisplay:10.37,2013-08-12 07:26:00,
2013-08-12 17:31:00,68.5,45.1,29.60,North,350,5.0,7.0,43,0.00,CLR,,0.00,WeatherDisplay:10.37,2013-08-12 07:31:00,
2013-08-12 17:36:00,68.5,45.1,29.61,NNW,338,5.0,13.0,43,0.00,CLR,,0.00,WeatherDisplay:10.37,2013-08-12 07:36:00,
2013-08-12 17:41:00,68.4,45.0,29.61,NW,315,2.0,9.0,43,0.00,CLR,,0.00,WeatherDisplay:10.37,2013-08-12 07:41:00,
2013-08-12 17:46:00,68.4,45.0,29.61,WNW,292,7.0,11.0,43,0.00,CLR,,0.00,WeatherDisplay:10.37,2013-08-12 07:46:00,
2013-08-12 17:51:00,68.2,44.8,29.61,WNW,294,5.0,9.0,43,0.00,CLR,,0.00,WeatherDisplay:10.37,2013-08-12 07:51:00,
2013-08-12 17:56:00,68.2,44.2,29.61,NW,317,3.0,20.0,42,0.00,CLR,,0.00,WeatherDisplay:10.37,2013-08-12 07:56:00,
2013-08-12 18:01:00,68.2,44.2,29.61,NW,317,5.0,9.0,42,0.00,CLR,,0.00,WeatherDisplay:10.37,2013-08-12 08:01:00,
2013-08-12 18:06:00,68.0,44.0,29.61,NW,314,2.0,13.0,42,0.00,CLR,,0.00,WeatherDisplay:10.37,2013-08-12 08:06:00,
2013-08-12 18:11:00,67.8,44.5,29.62,NNW,330,3.0,7.0,43,0.00,CLR,,0.00,WeatherDisplay:10.37,2013-08-12 08:11:00,
2013-08-12 18:16:00,67.8,44.5,29.63,NNW,334,3.0,10.0,43,0.00,CLR,,0.00,WeatherDisplay:10.37,2013-08-12 08:16:00,
2013-08-12 18:21:00,67.6,44.9,29.63,NW,324,0.0,9.0,44,0.00,CLR,,0.00,WeatherDisplay:10.37,2013-08-12 08:21:00,
2013-08-12 18:26:00,67.3,44.6,29.64,NW,312,3.0,9.0,44,0.00,CLR,,0.00,WeatherDisplay:10.37,2013-08-12 08:26:00,
2013-08-12 18:31:00,67.1,45.0,29.64,NW,312,5.0,11.0,45,0.00,CLR,,0.00,WeatherDisplay:10.37,2013-08-12 08:31:00,
2013-08-12 18:36:00,66.9,44.9,29.65,WNW,301,2.0,10.0,45,0.00,CLR,,0.00,WeatherDisplay:10.37,2013-08-12 08:36:00,
2013-08-12 18:41:00,66.7,45.3,29.65,West,278,2.0,9.0,46,0.00,CLR,,0.00,WeatherDisplay:10.37,2013-08-12 08:41:00,
2013-08-12 18:46:00,66.7,45.2,29.65,WNW,291,1.0,10.0,46,0.00,CLR,,0.00,WeatherDisplay:10.37,2013-08-12 08:46:00,
2013-08-12 18:51:00,66.6,45.1,29.65,West,278,2.0,10.0,46,0.00,CLR,,0.00,WeatherDisplay:10.37,2013-08-12 08:51:00,
2013-08-12 18:56:00,66.4,45.5,29.65,West,279,2.0,6.0,47,0.00,CLR,,0.00,WeatherDisplay:10.37,2013-08-12 08:56:00,
2013-08-12 19:01:00,66.2,45.4,29.66,NW,305,5.0,8.0,47,0.00,CLR,,0.00,WeatherDisplay:10.37,2013-08-12 09:01:00,
2013-08-12 19:06:00,66.0,45.2,29.65,NW,319,1.0,7.0,47,0.00,CLR,,0.00,WeatherDisplay:10.37,2013-08-12 09:06:00,
2013-08-12 19:11:00,66.0,45.8,29.66,NNW,327,2.0,4.0,48,0.00,CLR,,0.00,WeatherDisplay:10.37,2013-08-12 09:11:00,
2013-08-12 19:16:00,65.8,45.6,29.66,WNW,296,0.0,5.0,48,0.00,CLR,,0.00,WeatherDisplay:10.37,2013-08-12 09:16:00,
2013-08-12 19:21:00,65.5,45.3,29.66,West,274,0.0,5.0,48,0.00,CLR,,0.00,WeatherDisplay:10.37,2013-08-12 09:21:00,
2013-08-12 19:26:00,65.5,45.3,29.67,NW,311,1.0,4.0,48,0.00,CLR,,0.00,WeatherDisplay:10.37,2013-08-12 09:26:00,
2013-08-12 19:31:00,65.1,45.5,29.67,NW,319,1.0,7.0,49,0.00,CLR,,0.00,WeatherDisplay:10.37,2013-08-12 09:31:00,
2013-08-12 19:36:00,65.1,45.5,29.67,NW,308,0.0,2.0,49,0.00,CLR,,0.00,WeatherDisplay:10.37,2013-08-12 09:36:00,
2013-08-12 19:41:00,64.9,45.3,29.67,NW,317,1.0,4.0,49,0.00,CLR,,0.00,WeatherDisplay:10.37,2013-08-12 09:41:00,
2013-08-12 19:46:00,64.9,45.8,29.68,NW,318,0.0,4.0,50,0.00,CLR,,0.00,WeatherDisplay:10.37,2013-08-12 09:46:00,
2013-08-12 19:51:00,64.7,45.6,29.68,NW,315,0.0,4.0,50,0.00,CLR,,0.00,WeatherDisplay:10.37,2013-08-12 09:51:00,
2013-08-12 19:56:00,64.6,45.5,29.68,WNW,299,1.0,2.0,50,0.00,CLR,,0.00,WeatherDisplay:10.37,2013-08-12 09:56:00,
2013-08-12 20:01:00,64.6,45.5,29.68,WNW,296,0.0,2.0,50,0.00,CLR,,0.00,WeatherDisplay:10.37,2013-08-12 10:01:00,
2013-08-12 20:06:00,64.2,45.2,29.68,West,279,0.0,2.0,50,0.00,CLR,,0.00,WeatherDisplay:10.37,2013-08-12 10:06:00,
2013-08-12 20:11:00,64.2,45.7,29.68,West,278,1.0,4.0,51,0.00,CLR,,0.00,WeatherDisplay:10.37,2013-08-12 10:11:00,
2013-08-12 20:16:00,64.0,45.5,29.68,WNW,284,0.0,4.0,51,0.00,CLR,,0.00,WeatherDisplay:10.37,2013-08-12 10:16:00,
2013-08-12 20:21:00,64.0,45.5,29.68,WNW,290,1.0,5.0,51,0.00,CLR,,0.00,WeatherDisplay:10.37,2013-08-12 10:21:00,
2013-08-12 20:26:00,63.7,45.2,29.68,WNW,292,1.0,5.0,51,0.00,CLR,,0.00,WeatherDisplay:10.37,2013-08-12 10:26:00,
2013-08-12 20:31:00,63.7,45.2,29.68,WNW,300,1.0,7.0,51,0.00,CLR,,0.00,WeatherDisplay:10.37,2013-08-12 10:31:00,
2013-08-12 20:36:00,63.5,45.0,29.68,WNW,293,3.0,7.0,51,0.00,CLR,,0.00,WeatherDisplay:10.37,2013-08-12 10:36:00,
2013-08-12 20:41:00,63.3,44.9,29.69,WNW,295,2.0,7.0,51,0.00,CLR,,0.00,WeatherDisplay:10.37,2013-08-12 10:41:00,
2013-08-12 20:46:00,63.3,44.9,29.69,WNW,295,1.0,8.0,51,0.00,CLR,,0.00,WeatherDisplay:10.37,2013-08-12 10:46:00,
2013-08-12 20:51:00,63.2,44.3,29.70,West,279,1.0,8.0,50,0.00,CLR,,0.00,WeatherDisplay:10.37,2013-08-12 10:51:00,
2013-08-12 20:56:00,63.1,44.2,29.70,West,272,1.0,4.0,50,0.00,CLR,,0.00,WeatherDisplay:10.37,2013-08-12 10:56:00,
2013-08-12 21:01:00,63.1,44.2,29.70,West,272,0.0,6.0,50,0.00,CLR,,0.00,WeatherDisplay:10.37,2013-08-12 11:01:00,
2013-08-12 21:06:00,63.0,43.5,29.71,WNW,284,3.0,7.0,49,0.00,CLR,,0.00,WeatherDisplay:10.37,2013-08-12 11:06:00,
2013-08-12 21:11:00,62.8,43.4,29.71,WNW,287,1.0,7.0,49,0.00,CLR,,0.00,WeatherDisplay:10.37,2013-08-12 11:11:00,
2013-08-12 21:16:00,62.8,43.3,29.71,West,280,0.0,2.0,49,0.00,CLR,,0.00,WeatherDisplay:10.37,2013-08-12 11:16:00,
2013-08-12 21:21:00,62.6,43.2,29.71,WNW,289,0.0,0.0,49,0.00,CLR,,0.00,WeatherDisplay:10.37,2013-08-12 11:21:00,
2013-08-12 21:26:00,62.5,43.1,29.72,WNW,283,0.0,0.0,49,0.00,CLR,,0.00,WeatherDisplay:10.37,2013-08-12 11:26:00,
2013-08-12 21:31:00,62.4,42.5,29.72,NW,313,0.0,0.0,48,0.00,CLR,,0.00,WeatherDisplay:10.37,2013-08-12 11:31:00,
2013-08-12 21:36:00,62.4,42.5,29.73,NNW,344,0.0,0.0,48,0.00,CLR,,0.00,WeatherDisplay:10.37,2013-08-12 11:36:00,
2013-08-12 21:41:00,62.2,42.3,29.73,ENE,57,0.0,0.0,48,0.00,CLR,,0.00,WeatherDisplay:10.37,2013-08-12 11:41:00,
2013-08-12 21:46:00,61.9,42.5,29.73,SW,234,0.0,0.0,49,0.00,CLR,,0.00,WeatherDisplay:10.37,2013-08-12 11:46:00,
2013-08-12 21:51:00,61.7,42.3,29.73,West,278,0.0,0.0,49,0.00,CLR,,0.00,WeatherDisplay:10.37,2013-08-12 11:51:00,
2013-08-12 21:56:00,61.5,42.2,29.73,SW,234,0.0,0.0,49,0.00,CLR,,0.00,WeatherDisplay:10.37,2013-08-12 11:56:00,
2013-08-12 22:01:00,61.2,42.4,29.73,SW,220,0.0,0.0,50,0.00,CLR,,0.00,WeatherDisplay:10.37,2013-08-12 12:01:00,
2013-08-12 22:06:00,60.6,41.3,29.73,WSW,241,0.0,0.0,49,0.00,CLR,,0.00,WeatherDisplay:10.37,2013-08-12 12:06:00,
2013-08-12 22:11:00,60.2,41.4,29.73,SW,227,0.0,0.0,50,0.00,CLR,,0.00,WeatherDisplay:10.37,2013-08-12 12:11:00,
2013-08-12 22:16:00,59.7,41.0,29.73,SSW,205,0.0,0.0,50,0.00,CLR,,0.00,WeatherDisplay:10.37,2013-08-12 12:16:00,
2013-08-12 22:21:00,59.5,40.9,29.74,SSW,202,0.0,0.0,50,0.00,CLR,,0.00,WeatherDisplay:10.37,2013-08-12 12:21:00,
2013-08-12 22:26:00,59.2,40.5,29.74,WSW,248,0.0,0.0,50,0.00,CLR,,0.00,WeatherDisplay:10.37,2013-08-12 12:26:00,
2013-08-12 22:31:00,59.2,40.5,29.74,West,279,0.0,0.0,50,0.00,CLR,,0.00,WeatherDisplay:10.37,2013-08-12 12:31:00,
2013-08-12 22:36:00,59.2,40.5,29.74,WSW,258,0.0,0.0,50,0.00,CLR,,0.00,WeatherDisplay:10.37,2013-08-12 12:36:00,
2013-08-12 22:41:00,59.2,40.5,29.75,West,261,0.0,0.0,50,0.00,CLR,,0.00,WeatherDisplay:10.37,2013-08-12 12:41:00,
2013-08-12 22:46:00,59.1,40.4,29.75,West,269,0.0,0.0,50,0.00,CLR,,0.00,WeatherDisplay:10.37,2013-08-12 12:46:00,
2013-08-12 22:51:00,58.8,40.2,29.75,WNW,283,0.0,2.0,50,0.00,CLR,,0.00,WeatherDisplay:10.37,2013-08-12 12:51:00,
2013-08-12 22:56:00,58.8,40.2,29.75,WNW,293,0.0,0.0,50,0.00,CLR,,0.00,WeatherDisplay:10.37,2013-08-12 12:56:00,
2013-08-12 23:01:00,58.8,40.2,29.75,West,274,0.0,0.0,50,0.00,CLR,,0.00,WeatherDisplay:10.37,2013-08-12 13:01:00,
2013-08-12 23:06:00,58.6,39.5,29.75,WNW,283,0.0,0.0,49,0.00,CLR,,0.00,WeatherDisplay:10.37,2013-08-12 13:06:00,
2013-08-12 23:11:00,58.6,40.0,29.76,West,280,0.0,0.0,50,0.00,CLR,,0.00,WeatherDisplay:10.37,2013-08-12 13:11:00,
2013-08-12 23:16:00,58.6,40.0,29.75,WSW,251,0.0,0.0,50,0.00,CLR,,0.00,WeatherDisplay:10.37,2013-08-12 13:16:00,
2013-08-12 23:21:00,58.3,39.2,29.75,West,272,0.0,0.0,49,0.00,CLR,,0.00,WeatherDisplay:10.37,2013-08-12 13:21:00,
2013-08-12 23:26:00,58.3,39.2,29.76,West,265,0.0,5.0,49,0.00,CLR,,0.00,WeatherDisplay:10.37,2013-08-12 13:26:00,
2013-08-12 23:31:00,58.1,38.5,29.76,WSW,242,0.0,2.0,48,0.00,CLR,,0.00,WeatherDisplay:10.37,2013-08-12 13:31:00,
2013-08-12 23:36:00,57.9,37.8,29.76,West,259,0.0,0.0,47,0.00,CLR,,0.00,WeatherDisplay:10.37,2013-08-12 13:36:00,
2013-08-12 23:41:00,57.9,37.8,29.75,WNW,285,0.0,0.0,47,0.00,CLR,,0.00,WeatherDisplay:10.37,2013-08-12 13:41:00,
2013-08-12 23:46:00,57.9,37.2,29.75,NNW,333,0.0,0.0,46,0.00,CLR,,0.00,WeatherDisplay:10.37,2013-08-12 13:46:00,
2013-08-12 23:51:00,57.7,37.1,29.75,NNW,348,0.0,0.0,46,0.00,CLR,,0.00,WeatherDisplay:10.37,2013-08-12 13:51:00,
2013-08-12 23:56:00,57.4,37.3,29.75,WNW,293,0.0,0.0,47,0.00,CLR,,0.00,WeatherDisplay:10.37,2013-08-12 13:56:00,